When you browse on this site, cookies collect data to enhance your experience and personalize the content and advertising you see.
Visit our Privacy Policy to learn more. By continuing to use the site, you agree to this use of cookies and data.
  • In Hungary
  • List of Countries
  • For 7 days
  • Water Temperature
  • Satellite Maps
  • Weather Map
  • News
  • Weather Widgets
  • user-avatar
    Login

    Hourly Weather Timbuktu

    Today, 21 November, Wednesday

    Time Temperature Precipitation Wind Pressure Humidity
    00:00 +33°C° 0 mm 3 mps 737 mmHg 27%
    01:00 +31°C° 0 mm 3 mps 737 mmHg 26%
    02:00 +30°C° 0 mm 4 mps 737 mmHg 26%
    03:00 +30°C° 0 mm 4 mps 737 mmHg 25%
    04:00 +30°C° 0 mm 4 mps 737 mmHg 25%
    05:00 +29°C° 0 mm 4 mps 737 mmHg 24%
    06:00 +29°C° 0 mm 4 mps 737 mmHg 23%
    07:00 +30°C° 0 mm 5 mps 737 mmHg 22%
    08:00 +32°C° 0 mm 5 mps 738 mmHg 21%
    09:00 +33°C° 0 mm 6 mps 738 mmHg 19%
    10:00 +34°C° 0 mm 6 mps 738 mmHg 18%
    11:00 +36°C° 0 mm 6 mps 738 mmHg 17%
    12:00 +38°C° 0 mm 6 mps 738 mmHg 17%
    13:00 +39°C° 0 mm 5 mps 737 mmHg 16%
    14:00 +39°C° 0 mm 5 mps 737 mmHg 15%
    15:00 +38°C° 0 mm 4 mps 736 mmHg 14%
    16:00 +38°C° 0 mm 4 mps 736 mmHg 15%
    17:00 +37°C° 0 mm 3 mps 736 mmHg 15%
    18:00 +37°C° 0 mm 3 mps 737 mmHg 16%
    19:00 +36°C° 0 mm 3 mps 737 mmHg 16%
    20:00 +35°C° 0 mm 3 mps 737 mmHg 17%
    21:00 +35°C° 0 mm 3 mps 738 mmHg 17%
    22:00 +34°C° 0 mm 3 mps 738 mmHg 18%
    23:00 +34°C° 0 mm 4 mps 737 mmHg 19%

    Tomorrow, 22 November, Thursday

    Time Temperature Precipitation Wind Pressure Humidity
    00:00 +33°C° 0 mm 4 mps 737 mmHg 19%
    01:00 +33°C° 0 mm 4 mps 737 mmHg 20%
    02:00 +32°C° 0 mm 4 mps 737 mmHg 22%
    03:00 +32°C° 0 mm 5 mps 736 mmHg 23%
    04:00 +30°C° 0 mm 5 mps 736 mmHg 24%
    05:00 +30°C° 0 mm 5 mps 736 mmHg 24%
    06:00 +29°C° 0 mm 5 mps 736 mmHg 25%
    07:00 +30°C° 0 mm 5 mps 737 mmHg 24%
    08:00 +32°C° 0 mm 6 mps 737 mmHg 22%
    09:00 +33°C° 0 mm 7 mps 738 mmHg 20%
    10:00 +35°C° 0 mm 7 mps 738 mmHg 18%
    11:00 +36°C° 0 mm 6 mps 737 mmHg 15%
    12:00 +39°C° 0 mm 6 mps 737 mmHg 13%
    13:00 +39°C° 0 mm 6 mps 737 mmHg 12%
    14:00 +39°C° 0 mm 5 mps 736 mmHg 11%
    15:00 +39°C° 0 mm 5 mps 735 mmHg 10%
    16:00 +39°C° 0 mm 5 mps 736 mmHg 11%
    17:00 +37°C° 0 mm 5 mps 736 mmHg 12%
    18:00 +36°C° 0 mm 4 mps 736 mmHg 14%
    19:00 +35°C° 0 mm 5 mps 736 mmHg 15%
    20:00 +35°C° 0 mm 5 mps 737 mmHg 17%
    21:00 +34°C° 0 mm 6 mps 737 mmHg 19%
    22:00 +34°C° 0 mm 6 mps 737 mmHg 20%
    23:00 +33°C° 0 mm 5 mps 737 mmHg 21%

    Day after tomorrow, 23 November, Friday

    Time Temperature Precipitation Wind Pressure Humidity
    00:00 +32°C° 0 mm 5 mps 736 mmHg 22%
    01:00 +32°C° 0 mm 6 mps 736 mmHg 23%
    02:00 +32°C° 0 mm 6 mps 735 mmHg 23%
    03:00 +30°C° 0 mm 6 mps 735 mmHg 24%
    04:00 +30°C° 0 mm 6 mps 735 mmHg 24%
    05:00 +29°C° 0 mm 5 mps 735 mmHg 25%
    06:00 +29°C° 0 mm 5 mps 735 mmHg 26%
    07:00 +30°C° 0 mm 6 mps 736 mmHg 23%
    08:00 +32°C° 0 mm 6 mps 737 mmHg 21%
    09:00 +34°C° 0 mm 7 mps 737 mmHg 19%
    10:00 +36°C° 0 mm 7 mps 737 mmHg 15%
    11:00 +38°C° 0 mm 7 mps 736 mmHg 12%
    12:00 +40°C° 0 mm 6 mps 736 mmHg 8%
    13:00 +41°C° 0 mm 6 mps 735 mmHg 7%
    14:00 +41°C° 0 mm 6 mps 735 mmHg 7%
    15:00 +41°C° 0 mm 5 mps 734 mmHg 6%
    16:00 +40°C° 0 mm 4 mps 734 mmHg 7%
    17:00 +38°C° 0 mm 3 mps 734 mmHg 7%
    18:00 +37°C° 0 mm 2 mps 734 mmHg 7%
    19:00 +36°C° 0 mm 2 mps 735 mmHg 8%
    20:00 +35°C° 0 mm 2 mps 735 mmHg 8%
    21:00 +34°C° 0 mm 3 mps 736 mmHg 8%
    22:00 +34°C° 0 mm 2 mps 736 mmHg 9%
    23:00 +32°C° 0 mm 2 mps 735 mmHg 9%

    24 November, Saturday

    Time Temperature Precipitation Wind Pressure Humidity
    00:00 +31°C° 0 mm 2 mps 735 mmHg 9%
    01:00 +31°C° 0 mm 2 mps 735 mmHg 10%
    02:00 +30°C° 0 mm 2 mps 735 mmHg 10%
    03:00 +30°C° 0 mm 2 mps 734 mmHg 10%
    04:00 +29°C° 0 mm 2 mps 734 mmHg 10%
    05:00 +29°C° 0 mm 2 mps 735 mmHg 11%
    06:00 +29°C° 0 mm 3 mps 735 mmHg 11%
    07:00 +30°C° 0 mm 3 mps 736 mmHg 10%
    08:00 +33°C° 0 mm 3 mps 736 mmHg 9%
    09:00 +34°C° 0 mm 3 mps 737 mmHg 9%
    10:00 +36°C° 0 mm 3 mps 737 mmHg 8%
    11:00 +37°C° 0 mm 3 mps 736 mmHg 7%
    12:00 +39°C° 0 mm 3 mps 736 mmHg 6%
    13:00 +39°C° 0 mm 3 mps 735 mmHg 6%
    14:00 +40°C° 0 mm 3 mps 735 mmHg 6%
    15:00 +40°C° 0 mm 3 mps 734 mmHg 6%
    16:00 +39°C° 0 mm 3 mps 734 mmHg 6%
    17:00 +38°C° 0 mm 3 mps 734 mmHg 6%
    18:00 +37°C° 0 mm 3 mps 735 mmHg 7%
    19:00 +36°C° 0 mm 3 mps 735 mmHg 7%
    20:00 +35°C° 0 mm 3 mps 736 mmHg 7%
    21:00 +34°C° 0 mm 3 mps 736 mmHg 7%
    22:00 +33°C° 0 mm 3 mps 736 mmHg 7%
    23:00 +33°C° 0 mm 3 mps 736 mmHg 7%

    25 November, Sunday

    Time Temperature Precipitation Wind Pressure Humidity
    00:00 +31°C° 0 mm 3 mps 736 mmHg 7%
    01:00 +30°C° 0 mm 3 mps 735 mmHg 8%
    02:00 +29°C° 0 mm 3 mps 735 mmHg 8%
    03:00 +29°C° 0 mm 3 mps 735 mmHg 9%
    04:00 +28°C° 0 mm 3 mps 735 mmHg 10%
    05:00 +27°C° 0 mm 4 mps 736 mmHg 12%
    06:00 +27°C° 0 mm 4 mps 736 mmHg 14%
    07:00 +28°C° 0 mm 5 mps 736 mmHg 13%
    08:00 +29°C° 0 mm 5 mps 737 mmHg 12%
    09:00 +30°C° 0 mm 6 mps 737 mmHg 11%
    10:00 +33°C° 0 mm 6 mps 737 mmHg 9%
    11:00 +35°C° 0 mm 5 mps 737 mmHg 8%
    12:00 +37°C° 0 mm 5 mps 736 mmHg 6%
    13:00 +39°C° 0 mm 5 mps 736 mmHg 6%
    14:00 +39°C° 0 mm 5 mps 735 mmHg 5%
    15:00 +40°C° 0 mm 5 mps 735 mmHg 5%
    16:00 +38°C° 0 mm 4 mps 735 mmHg 6%
    17:00 +37°C° 0 mm 4 mps 735 mmHg 6%
    18:00 +35°C° 0 mm 4 mps 735 mmHg 7%
    19:00 +35°C° 0 mm 5 mps 736 mmHg 7%
    20:00 +34°C° 0 mm 5 mps 736 mmHg 8%
    21:00 +33°C° 0 mm 5 mps 736 mmHg 9%
    22:00 +32°C° 0 mm 6 mps 736 mmHg 11%
    23:00 +30°C° 0 mm 6 mps 736 mmHg 13%

    26 November, Monday

    Time Temperature Precipitation Wind Pressure Humidity
    00:00 +30°C° 0 mm 6 mps 735 mmHg 15%
    01:00 +29°C° 0 mm 6 mps 735 mmHg 17%
    02:00 +29°C° 0 mm 5 mps 735 mmHg 18%
    03:00 +28°C° 0 mm 5 mps 735 mmHg 19%
    04:00 +27°C° 0 mm 5 mps 735 mmHg 20%
    05:00 +27°C° 0 mm 5 mps 735 mmHg 21%
    06:00 +26°C° 0 mm 5 mps 735 mmHg 22%
    07:00 +27°C° 0 mm 5 mps 736 mmHg 21%
    08:00 +29°C° 0 mm 6 mps 736 mmHg 20%
    09:00 +30°C° 0 mm 6 mps 736 mmHg 19%
    10:00 +33°C° 0 mm 6 mps 736 mmHg 16%
    11:00 +35°C° 0 mm 6 mps 735 mmHg 13%
    12:00 +38°C° 0 mm 6 mps 735 mmHg 11%
    13:00 +37°C° 0 mm 5 mps 734 mmHg 10%
    14:00 +39°C° 0 mm 5 mps 734 mmHg 9%
    15:00 +40°C° 0 mm 5 mps 733 mmHg 8%
    16:00 +39°C° 0 mm 5 mps 734 mmHg 9%
    17:00 +36°C° 0 mm 4 mps 734 mmHg 10%
    18:00 +35°C° 0 mm 4 mps 734 mmHg 11%
    19:00 +35°C° 0 mm 5 mps 735 mmHg 12%
    20:00 +34°C° 0 mm 5 mps 735 mmHg 12%
    21:00 +33°C° 0 mm 5 mps 735 mmHg 13%
    22:00 +32°C° 0 mm 5 mps 735 mmHg 14%
    23:00 +32°C° 0 mm 5 mps 735 mmHg 14%
    Show more